Home > Weather > Liezen > Past weeks

Flag for Austria Past Weather in Liezen, Styria, Austria — Yesterday and Last 2 Weeks

Now
56 °F

Cool.


Feels Like: 56 °F
Forecast: 49 / 77 °F
Wind: 2 mph from Southwest

Location: Aigen Im Ennstal

Current Time: Jun 27, 2016 at 11:38:44 AM

Latest Report: Jun 27, 2016 at 10:00 AM


Visibility: N/A

Pressure: 30.18 "Hg (27.89 "Hg at 661m altitude)

Humidity: 82%

Dew Point: 51 °F

Location of LiezenLocation

Past Weather in Liezen — Graph

°F

Liezen Temperature Yesterday

Maximum temperature yesterday: 74 °F (at 2:00 PM)
Minimum temperature yesterday: 59 °F (at 11:00 PM)
Average temperature yesterday: 65 °F

High & Low Weather Summary for the Past Weeks

 TemperatureHumidityPressure
High90 °F (Jun 24, 5:00 PM)95% (Jun 13, 4:00 AM)30.38 "Hg (Jun 13, 4:00 AM)
Low48 °F (Jun 18, 6:00 AM)33% (Jun 23, 3:00 PM)29.50 "Hg (Jun 14, 3:00 PM)
Average63 °F75%29.94 "Hg
* Reported Jun 12 10:00 AM — Jun 27 10:00 AM, Liezen, Weather by CustomWeather, © 2016

Note: Actual official high and low records may vary slightly from our data, if they occured in-between our weather recording intervals... More about our weather records

Advertising

Liezen Weather History for the Previous 24 Hours

Scroll right to see more
 ConditionsComfort  
Time TempWeatherWind HumidityBarometerVisibility
10:00 AM
Mon, Jun 27
56 °FCool.2 mph82%30.18 "HgN/A
9:00 AM56 °FCool.2 mph82%30.16 "HgN/A
8:00 AM56 °FSprinkles. Overcast.2 mph88%30.14 "Hg11 mi
7:00 AM56 °FSprinkles. Low clouds.2 mph89%30.12 "Hg6 mi
6:00 AM56 °FCool.No wind86%30.12 "HgN/A
5:00 AM56 °FLight rain. Low clouds.N/A88%30.09 "Hg4 mi
4:00 AM57 °FCool.1 mph91%30.08 "HgN/A
3:00 AM58 °FCool.1 mph92%30.06 "HgN/A
2:00 AM59 °FLow clouds.N/A90%30.06 "Hg6 mi
1:00 AM59 °FCool.1 mph92%30.08 "HgN/A
12:00 AM59 °FCool.No wind93%30.08 "HgN/A
11:00 PM
Sun, Jun 26
59 °FThunderstorms. Low clouds.2 mph90%30.06 "Hg9 mi
10:00 PM60 °FSprinkles. Overcast.3 mph89%30.06 "HgN/A
9:00 PM61 °FSprinkles. Cloudy.2 mph88%30.02 "HgN/A
8:00 PM63 °FLow clouds.N/A87%30.00 "Hg12 mi
7:00 PM64 °FMild.3 mph76%30.01 "HgN/A
6:00 PM63 °FMild.1 mph78%30.01 "HgN/A
5:00 PM69 °FThunderstorms. Overcast.5 mph66%30.03 "Hg6 mi
4:00 PM73 °FMild.3 mph59%29.92 "HgN/A
3:00 PM73 °FMild.5 mph56%29.94 "HgN/A
2:00 PM74 °FMild.5 mph54%29.94 "HgN/A
1:00 PM73 °FMild.5 mph54%29.97 "HgN/A
12:00 PM71 °FMild.2 mph59%29.98 "HgN/A
11:00 AM69 °FScattered clouds.2 mph63%30.00 "Hg19 mi
Weather by CustomWeather, © 2016

See weather overviewHow to use our weather pages